sat.trackr.live / text

‹ back to catalog

CENTISPACE-1 S4

NORAD 53758 · 2022-108B

PAYLOAD ACTIVE UNKNOWN

§ Identity

Operator
Country
PRC
Launch date
2022-09-06
Launch site
JSC
Launch vehicle
Mass (kg)
RCS (m²)

External: N2YO · Heavens-Above · Gunter

§ Orbital elements

Epoch: 2026-05-25T03:38:20.499360Z

Period
98.50 min
Inclination
53.5285°
Eccentricity
0.0007774
Mean motion
14.61899452 rev/d
Perigee alt
681.6 km
Apogee alt
692.5 km
Semi-major
7,065.2 km
B*
6.0113e-5
RAAN
148.1371°
Arg perigee
272.0402°
Mean anomaly
87.9683°
Rev number
19,819

§ Raw data

CENTISPACE-1 S41 53758U 22108B   26145.15162615  .00000113  00000+0  60113-4 0  99952 53758  53.5285 148.1371 0007774 272.0402  87.9683 14.61899452198193

JSON: /api/v1/satellites/53758 · /tle

For live sub-satellite position, see the globe view (requires WebGL).

§ Visibility from observer

Set your observer location to see the next 7 days of passes ≥ 10°. The values pass through the URL so the page stays shareable.

No JS? Fill the form by hand. The geolocation button needs JavaScript.

§ Radio — SatNOGS DB

ModeDescriptionDownlinkUplink
FM L-band GPS data 1.575 GHz
FM S-band telemetry 2.220 GHz

2 transmitters · refreshed weekly from db.satnogs.org